User: anonymous   Login
Location: Caltech
(34.1382°N, 118.1253°W)
Time: 14:34:08
(UTC-07:00)
Language:

Oscar 10/S400 - Orbit

View from above orbital plane
View from above orbital plane
View from above satellite
View from above satellite

Ground track
Ground track

The orbit data is extracted from the following two-line orbital elements,

1 14129U 83058B   16145.27806262 -.00000260  00000-0  00000+0 0  9999
2 14129  26.7079  96.6518 6010420 201.2170 351.3301  2.05870489219800
Epoch (UTC): 24 May 2016 06:40:24
Eccentricity: 0.6010420
inclination: 26.7079°
perigee height: 4035 km
apogee height: 35412 km
right ascension of ascending node: 96.6518°
argument of perigee: 201.2170°
revolutions per day: 2.05870489
mean anomaly at epoch: 351.3301°
orbit number at epoch: 21980

The dashed part of the orbit path shows where the satellite is in the earth's shadow,  

DLR